Location: Hilton Head Island
(32.2163°N, 80.7526°W)
Time: 19:32:55
(UTC-05:00)

Tiangong - Visible Passes

Search period start: 24 January 2026 00:00
Search period end: 03 February 2026 00:00
Orbit: 378 x 392 km, 41.5° (Epoch: 24 January)

Date Brightness Start Highest point End Pass type
(mag) Time Alt. Az. Time Alt. Az. Time Alt. Az.
24 Jan 0.0 06:51:51 10° NW 06:54:09 18° N 06:56:27 10° ENE visible
25 Jan 0.1 05:54:12 16° N 05:54:15 16° N 05:56:16 10° NE visible
26 Jan -0.4 06:29:32 12° NW 06:31:48 23° NNE 06:34:27 10° ENE visible
27 Jan 0.3 05:32:37 17° NNE 05:32:37 17° NNE 05:34:08 10° ENE visible
28 Jan -0.9 06:07:52 23° NNW 06:09:11 34° NNE 06:12:07 10° E visible
29 Jan 0.8 05:10:56 15° ENE 05:10:56 15° ENE 05:11:47 10° ENE visible
29 Jan -2.0 06:43:08 11° WNW 06:46:11 67° SSW 06:49:19 10° SE visible
30 Jan -1.9 05:46:11 60° NNE 05:46:15 60° NNE 05:49:23 10° ESE visible
31 Jan -1.1 06:21:28 20° W 06:22:59 31° SW 06:25:50 10° SSE visible
1 Feb -0.1 05:24:34 26° SE 05:24:34 26° SE 05:26:08 10° SE visible
2 Feb 0.0 05:59:54 15° SSW 05:59:54 15° SSW 06:01:29 10° S visible
